Simultaneous Nadir Overpasses (SNOs) Predictions

Prediction of SNOs between GOES-16 and TERRA Satellite Orbit:

Table of predicted SNOs for the next 14.0 days since TLE Epoch: 4/27/2017
Index Date Time (GOES-16) GOES-16 Lat,Lon TERRA Lat,Lon Distance(km) Time Diff (sec)
1 04/29/2017 04:10:38 0.01, -89.49 0.85, -85.52 450.88 80
2 04/29/2017 16:31:54 -0.00, -89.50 0.23, -90.68 134.57 80
3 05/01/2017 16:22:23 0.00, -89.50 -0.39, -87.73 201.63 80
4 05/02/2017 04:43:47 -0.00, -89.49 -0.72, -92.92 389.24 80
5 05/04/2017 04:31:36 -0.01, -89.50 -0.09, -89.96 52.46 80
6 05/06/2017 04:16:45 -0.01, -89.51 0.55, -87.01 285.02 80
7 05/06/2017 16:38:00 0.01, -89.52 0.59, -92.15 300.53 80
8 05/08/2017 16:28:29 0.01, -89.53 -0.05, -89.20 37.73 80
9 05/10/2017 16:16:18 0.01, -89.56 -0.70, -86.25 376.31 80
10 05/11/2017 04:37:41 -0.02, -89.56 -0.41, -91.44 213.47 80




NCC Satellite Simultaneous Nadir Overpasses (SNOs) Prediction Service
